This demonstration page uses our WeatherBlox Daily Observations layout. Learn more.

Left ArrowRight Arrow

34.16533, -84.80231

Hourly Observations for June 4, 2019

Temp ( °F °C ) Dew Point ( °F °C ) Humidity (%) Winds ( mph kmh ) Pressure ( in mb ) Visibility ( mi km ) Precip ( " mm )
12:53 am 00:53 Clear 66 18.9 55 12.8 68 68 Calm 30.02 1017 10 16 0.00 0.00
1:53 am 01:53 Clear 64 17.8 56 13.3 75 75 Calm 30.03 1017 10 16 0.00 0.00
2:53 am 02:53 Clear 63 17.2 55 12.8 76 76 Calm 30.03 1017 10 16 0.00 0.00
3:53 am 03:53 Clear 63 17.2 56 13.3 78 78 Calm 30.04 1017 10 16 0.00 0.00
4:53 am 04:53 Clear 61 16.1 55 12.8 81 81 Calm 30.04 1017 10 16 0.00 0.00
5:53 am 05:53 Clear 59 15 55 12.8 87 87 Calm 30.05 1018 10 16 0.00 0.00
6:53 am 06:53 Sunny 59 15 55 12.8 87 87 Calm 30.07 1018 10 16 0.00 0.00
7:53 am 07:53 Sunny 62 16.7 58 14.4 86 86 Calm 30.08 1019 10 16 0.00 0.00
8:53 am 08:53 Sunny 69 20.6 56 13.3 63 63 VRB 3 6 30.07 1018 10 16 0.00 0.00
9:53 am 09:53 Sunny 72 22.2 52 11.1 50 50 VRB 7 11 30.10 1019 10 16 0.00 0.00
10:53 am 10:53 Sunny 75 23.9 54 12.2 48 48 E 9 15 30.10 1019 10 16 0.00 0.00
11:53 am 11:53 Sunny 77 25 58 14.4 52 52 VRB 5 7 30.10 1019 10 16 0.00 0.00
12:38 pm 12:38 Mostly Cloudy 78 25.6 60 15.6 54 54 ESE 6 9 30.11 1020 10 16 0.00 0.00
12:48 pm 12:48 Partly Cloudy 77 25 61 16 57 57 ESE 9 15 30.10 1019 10 16 0.00 0.00
12:53 pm 12:53 Partly Cloudy 77 25 60 15.6 56 56 ESE 8 13 30.10 1019 10 16 0.00 0.00
1:53 pm 13:53 Sunny 80 26.7 61 16.1 52 52 SE 9 15 30.09 1019 10 16 0.00 0.00
2:53 pm 14:53 Sunny 78 25.6 61 16.1 56 56 E 7 11 30.08 1019 10 16 0.00 0.00
3:53 pm 15:53 Sunny 78 25.6 62 16.7 58 58 SSE 5 7 30.06 1018 10 16 0.00 0.00
4:53 pm 16:53 Sunny 81 27.2 63 17.2 54 54 VRB 5 7 30.05 1018 10 16 0.00 0.00
5:53 pm 17:53 Sunny 81 27.2 63 17.2 54 54 ESE 6 9 30.04 1017 10 16 0.00 0.00
6:53 pm 18:53 Sunny 81 27.2 62 16.7 53 53 SE 3 6 30.01 1016 10 16 0.00 0.00
7:53 pm 19:53 Sunny 77 25 64 17.8 64 64 Calm 30.01 1016 10 16 0.00 0.00
8:53 pm 20:53 Clear 71 21.7 65 18.3 81 81 Calm 30.01 1016 9 14 0.00 0.00
9:53 pm 21:53 Clear 68 20 64 17.8 87 87 Calm 30.01 1016 9 14 0.00 0.00
10:53 pm 22:53 Clear 65 18.3 64 17.8 97 97 Calm 30.02 1017 8 13 0.00 0.00
11:53 pm 23:53 Clear 65 18.3 63 17.2 93 93 ENE 3 6 30.02 1017 8 13 0.00 0.00

Powered by AerisWeather